Location: DARK SKY Beskydy - Park tmavé oblohy, www.darkskybeskydy.cz
(49.4926°N, 18.5016°E)
Time: 11:47:44
(UTC+02:00)

BlueWalker 3 - Pass Details

Date: 20 June 2024
Orbit: 480 x 491 km, 53.2° (Epoch: 23 July)

Event Time Altitude Azimuth Distance (km) Brightness Sun altitude
Rises 02:38:42 0° 293° (WNW) 2,539 5.5 -13.0°
Reaches altitude 10° 02:40:52 10° 294° (WNW) 1,657 4.5 -12.8°
Maximum altitude 02:44:36 84° 22° (NNE) 488 1.9 -12.6°
Drops below altitude 10° 02:48:21 10° 112° (ESE) 1,654 4.6 -12.3°
Sets 02:50:30 0° 113° (ESE) 2,532 5.6 -12.1°
